This is the latest recevied weather packets stored in our database for station/object OK3FM-14. If no packets are shown the sender has not sent any weather packets the latest 10 day(s).
| Time | Temp. | Humidity | Pressure | Rain* | Wind** | Luminosity | Snow |
|---|---|---|---|---|---|---|---|
| 1787893046 | 15° C | 81% | 1015.1 hPa | - | - | - | - |
| 1787892446 | 15° C | 84% | 1015.2 hPa | - | - | - | - |
| 1787891846 | 15° C | 84% | 1015 hPa | - | - | - | - |
| 1787891246 | 14.44° C | 85% | 1015 hPa | - | - | - | - |
| 1787890646 | 14.44° C | 86% | 1015.4 hPa | - | - | - | - |
| 1787890045 | 14.44° C | 88% | 1015.5 hPa | - | - | - | - |
| 1787889446 | 14.44° C | 89% | 1015.4 hPa | - | - | - | - |
| 1787888845 | 14.44° C | 88% | 1015.5 hPa | - | - | - | - |
| 1787888247 | 14.44° C | 86% | 1015.6 hPa | - | - | - | - |
| 1787887646 | 14.44° C | 86% | 1015.6 hPa | - | - | - | - |
| 1787887046 | 14.44° C | 85% | 1015.5 hPa | - | - | - | - |
| 1787886446 | 14.44° C | 86% | 1015.7 hPa | - | - | - | - |
| 1787885846 | 14.44° C | 86% | 1015.8 hPa | - | - | - | - |
| 1787885245 | 14.44° C | 85% | 1016 hPa | - | - | - | - |
| 1787884645 | 15° C | 85% | 1016 hPa | - | - | - | - |
| 1787884046 | 15° C | 85% | 1016 hPa | - | - | - | - |
| 1787883446 | 15° C | 84% | 1015.9 hPa | - | - | - | - |
| 1787882846 | 15° C | 83% | 1015.9 hPa | - | - | - | - |
| 1787882246 | 15° C | 83% | 1015.8 hPa | - | - | - | - |
| 1787881646 | 15.56° C | 82% | 1016 hPa | - | - | - | - |
| 1787881046 | 15.56° C | 82% | 1016 hPa | - | - | - | - |
| 1787880446 | 15.56° C | 82% | 1016.1 hPa | - | - | - | - |
| 1787879846 | 15.56° C | 82% | 1016 hPa | - | - | - | - |
| 1787879246 | 16.11° C | 82% | 1016.1 hPa | - | - | - | - |
| 1787878646 | 16.11° C | 82% | 1016.2 hPa | - | - | - | - |
* Rain since midnight (hover to see other rain measurements)
** Current wind speed in m/s (hover to see current wind gust speed)